"Pseudo-MPEC" for P20JEyJ

Created 2018 Oct 12 20:18:10 UT using Find_Orb

Click here for an explanation of pseudo-MPECs

 
 Astrometry: 
     P20JEyJ  C2018 09 11.30122 00 46 55.27 +07 27 00.6          20.8 G NEOCPG96
     P20JEyJ  C2018 09 11.30647 00 46 55.46 +07 26 45.9          20.4 G NEOCPG96
     P20JEyJ  C2018 09 11.31175 00 46 55.56 +07 26 32.4          20.7 G NEOCPG96
     P20JEyJ  C2018 09 11.31701 00 46 55.70 +07 26 18.6          20.9 G NEOCPG96
     P20JEyJ  C2018 10 02UlAstrometryCqdr.+h$nPx`*tJ6Mer`S;HEl(T1NQ\._$DH(ly'F52
     P20JEyJ  C2018 10 02-]UWs(Cliva7B.sP?G(!/D:jH88*_kelOA##FHlw0]sVI7WQlAuaF52
     P20JEyJ  C2018 10 021wSI\8o!^xBb.Il_3*X+:(vL3Bmc)$:7'v)PxhNtPOt8RAR?%0$?F52
     P20JEyJ  C2018 10 02lTEvlCZJ]qR4T\fB1`L:5?l0qe5[i.NCT.sFQSqh$#Y_hUJO(d!VF52
     P20JEyJ  C2018 10 02Nru=SdK[aYC[NhQ=m.?mb[rkc\/dm76hTD-YYn9#)s+LJH?XBy%*F52
     P20JEyJ  C2018 10 02ZwuxZ^'uSo)QVb0%!3.t?ZDASV=R6Gggve!Z'(/4x8eT!vYcBQ\VF52
     P20JEyJ  C2018 10 02OXd,upvC]cse.*m=rE0^T1Z3gw/Z@H8*T3*08m^:XlxLcqqs/K*CF52
     P20JEyJ  C2018 10 029L@DTBlFL4'*D?x\3redacted;0N2\8].1F3piv/)@KgdRgx3LwRF52
     P20JEyJ  C2018 10 02$Y?4.+qBYehl[WMWAVR_[?#g,2S,62Kt1vNTU:B!uTN-O^_4t$k;F52
     P20JEyJ  C2018 10 02dGwg3(8an46HCPDE%RM2'fKo:OaUn.KE/N2v0K7$9M]W%\]WcI_OF52
     P20JEyJ  C2018 10 02u.CJoyrXJ=ARP=cUTAn\HQ9'3v^wFwu`JEU#rgM5.Z?KwtZripttF52
     P20JEyJ  C2018 10 10/!b`:_`7?[QCZ-FRtNB].a._\BW%8RySabm_t]6=qwdJLlF/T-q9F52
     P20JEyJ  C2018 10 10CnJH`Hb0c$Wdp^=aU58s9de_M?Fy2jG78-9:p#$N5BU+ZLFia_cTF52
     P20JEyJ  C2018 10 10#(m+:*4*QKv8?k.vo]1klq%=nZWh`\1bseePoP4V08OU!KJ8]o^TF52
     P20JEyJ  C2018 10 10tqi6NF%.`;skhS%BciZ8E5cIM?e.mhZ\X.]7pwRiC1-SpFgbEW%HF52
     P20JEyJ KC2018 10 10^AJ45lHKJ0.b`:o`8Gn3=nU%92*Jd]tSrf!x72`S8Fmb,_B-.0J?K88
     P20JEyJ KC2018 10 10)p+h2U,oP_B;t-'Z`s'.5gGXuUByXa]NlK:G1cwK+nf%!G:@A$0bK88
     P20JEyJ KC2018 10 10Kh]'07_qtgcy[d0Db[*0!ce#'wx+-aWOx8_5Q0/MbS7swS.[cdEOK88
     P20JEyJ KC2018 10 11@V=!JMy:e8P94OggOt7^Uy3v!C9V9rfq3Qd=mf0[fH];gW-Aob@\L01
     P20JEyJ KC2018 10 11^AZRxsJJ:A]E+T9LeNhQw%G6T_,p%B/;RPe#j`:5Fo(r4W:?.?fLL01
     P20JEyJ KC2018 10 11/te;kj8TD:owjZT4tHJ@=,l+c,Kq%kw5fb*1,BeQ]4('n6BNEOCPL01

Station data:
(F52) Pan-STARRS 2, Haleakala  (N20.707384 W156.255910)  US/Hawaii.
(G96) Mt. Lemmon Survey  (N32.442754 W110.788720)  US/Arizona.  Observers B.
   M. Africano, E. J. Christensen, D. C. Fuls, A. R. Gibbs, A. D. Grauer, J.
   A. Johnson, R. A. Kowalski, S. M. Larson, G. J. Leonard, R. L. Seaman, F.
   C. Shelly. 1.5-m reflector + 10K CCD.
(K88) GINOP-KHK, Piszkéstető  (N47.917622 E19.893600)  Hungary.  Observer K.
   Sárneczky. 0.60-m Schmidt + CCD.
(L01) Višnjan Observatory, Tičan  (N45.290900 E13.749300)  Croatia.  Observer
   K. Korlević. 1.0-m f/2.9 reflector + CCD.

Orbital elements:  P20JEyJ
   Perihelion 2018 Nov 22.656317 +/- 0.0095 TT = 15:45:05 (JD 2458445.156317)
Epoch 2018 Oct 11.0 TT = JDT 2458402.5   Earth MOID: 0.3996   Ma: 0.0225
M 342.23401 +/- 0.010               (J2000 ecliptic)          AutoNEOCP
n   0.41649134 +/- 0.000158         Peri.  227.10906 +/- 0.010
a   1.77581913 +/- 0.000449         Node   177.84631 +/- 0.0014
e   0.2456220 +/- 0.00012           Incl.   23.18080 +/- 0.007
P   2.37/864.35d           H 21.3   G  0.15   U  6.9  
q 1.33963877 +/- 0.000126    Q 2.21199949 +/- 0.000771
From 25 observations 2018 Sept. 11-Oct. 11; mean residual 0".22
Residuals in arcseconds: 
180911 G96  .12-  .29+    181002 F52  .14+  .07+    181010 F52  .00   .14-    
180911 G96  .53+  .49-    181002 F52  .18-  .04+    181010 K88  .10-  .45+    
180911 G96  .17-  .02+    181002 F52  .26+  .51-    181010 K88  .03+  .34+    
180911 G96  .25-  .17+    181002 F52  .02+  .32-    181010 K88  .13-  .36+    
181002 F52  .01-  .07+    181002 F52  .09+  .09-    181011 L01  .12-  .24-    
181002 F52  .06-  .01+    181002 F52  .09-  .36+    181011 L01  .04-  .34-    
181002 F52  .09-  .05-    181010 F52  .06+  .27-    181011 L01  .13+  .14+    
181002 F52  .03+  .16+    181010 F52  .08+  .16-    
181002 F52  .09-  .21+    181010 F52  .12+  .22-    

Ephemerides (geocentric):
Date (UTC) HH   RA              Dec         delta   r     elong  mag " sig PA
---- -- -- --  -------------   -----------  ------ ------ -----  --- ---- ---
2018 10 12 20  00 55 32.448   -21 06 10.79  .41112 1.3724 151.1 21.1  .11 118
2018 10 12 21  00 55 32.826   -21 08 14.13  .41120 1.3724 151.1 21.1  .11 119
2018 10 12 22  00 55 33.206   -21 10 17.33  .41129 1.3723 151.0 21.1  .11 119
2018 10 12 23  00 55 33.586   -21 12 20.40  .41138 1.3722 151.0 21.1  .11 120
2018 10 13 00  00 55 33.968   -21 14 23.35  .41147 1.3722 150.9 21.1  .11 120
2018 10 13 01  00 55 34.350   -21 16 26.16  .41156 1.3721 150.9 21.1  .11 121
2018 10 13 02  00 55 34.733   -21 18 28.84  .41166 1.3720 150.8 21.1  .12 121
2018 10 13 03  00 55 35.117   -21 20 31.38  .41175 1.3720 150.8 21.1  .12 121
2018 10 13 04  00 55 35.501   -21 22 33.80  .41184 1.3719 150.7 21.1  .12 122
2018 10 13 05  00 55 35.887   -21 24 36.08  .41193 1.3718 150.7 21.1  .12 122
2018 10 13 06  00 55 36.274   -21 26 38.23  .41202 1.3718 150.6 21.1  .12 123
2018 10 13 07  00 55 36.661   -21 28 40.25  .41212 1.3717 150.5 21.1  .12 123
2018 10 13 08  00 55 37.050   -21 30 42.14  .41221 1.3716 150.5 21.1  .12 124
2018 10 13 09  00 55 37.439   -21 32 43.89  .41230 1.3716 150.4 21.1  .13 124
2018 10 13 10  00 55 37.829   -21 34 45.51  .41240 1.3715 150.4 21.1  .13 124
2018 10 13 11  00 55 38.220   -21 36 46.99  .41249 1.3715 150.3 21.1  .13 125
2018 10 13 12  00 55 38.612   -21 38 48.34  .41258 1.3714 150.3 21.1  .13 125
2018 10 13 13  00 55 39.005   -21 40 49.56  .41268 1.3713 150.2 21.1  .13 125
2018 10 13 14  00 55 39.399   -21 42 50.65  .41277 1.3713 150.2 21.1  .13 126
2018 10 13 15  00 55 39.794   -21 44 51.59  .41287 1.3712 150.1 21.1  .14 126
2018 10 13 16  00 55 40.190   -21 46 52.41  .41296 1.3711 150.1 21.1  .14 127
2018 10 13 17  00 55 40.587   -21 48 53.09  .41306 1.3711 150.0 21.1  .14 127
2018 10 13 18  00 55 40.985   -21 50 53.63  .41316 1.3710 150.0 21.1  .14 127
2018 10 13 19  00 55 41.384   -21 52 54.04  .41325 1.3709 149.9 21.1  .14 128
2018 10 13 20  00 55 41.784   -21 54 54.32  .41335 1.3709 149.8 21.1  .14 128
2018 10 13 21  00 55 42.185   -21 56 54.45  .41345 1.3708 149.8 21.1  .15 128
2018 10 13 22  00 55 42.587   -21 58 54.46  .41355 1.3708 149.7 21.1  .15 129
2018 10 13 23  00 55 42.990   -22 00 54.32  .41364 1.3707 149.7 21.1  .15 129
2018 10 14 00  00 55 43.394   -22 02 54.05  .41374 1.3706 149.6 21.1  .15 129
2018 10 14 01  00 55 43.799   -22 04 53.64  .41384 1.3706 149.6 21.1  .15 130
2018 10 14 02  00 55 44.205   -22 06 53.10  .41394 1.3705 149.5 21.1  .15 130
2018 10 14 03  00 55 44.612   -22 08 52.42  .41404 1.3704 149.5 21.1  .16 130
2018 10 14 04  00 55 45.020   -22 10 51.60  .41414 1.3704 149.4 21.1  .16 131
2018 10 14 05  00 55 45.429   -22 12 50.65  .41424 1.3703 149.4 21.1  .16 131
2018 10 14 06  00 55 45.840   -22 14 49.56  .41434 1.3702 149.3 21.1  .16 131
2018 10 14 07  00 55 46.251   -22 16 48.33  .41444 1.3702 149.3 21.1  .16 132
2018 10 14 08  00 55 46.663   -22 18 46.96  .41454 1.3701 149.2 21.1  .17 132
2018 10 14 09  00 55 47.077   -22 20 45.45  .41464 1.3701 149.1 21.1  .17 132
2018 10 14 10  00 55 47.492   -22 22 43.81  .41474 1.3700 149.1 21.1  .17 133
2018 10 14 11  00 55 47.907   -22 24 42.02  .41484 1.3699 149.0 21.1  .17 133
2018 10 14 12  00 55 48.324   -22 26 40.10  .41495 1.3699 149.0 21.1  .17 133
2018 10 14 13  00 55 48.742   -22 28 38.04  .41505 1.3698 148.9 21.1  .17 134
2018 10 14 14  00 55 49.161   -22 30 35.84  .41515 1.3697 148.9 21.1  .18 134
2018 10 14 15  00 55 49.581   -22 32 33.51  .41526 1.3697 148.8 21.1  .18 134
2018 10 14 16  00 55 50.003   -22 34 31.03  .41536 1.3696 148.8 21.1  .18 134
2018 10 14 17  00 55 50.425   -22 36 28.41  .41546 1.3696 148.7 21.1  .18 135
2018 10 14 18  00 55 50.849   -22 38 25.65  .41557 1.3695 148.7 21.1  .18 135
2018 10 14 19  00 55 51.273   -22 40 22.76  .41567 1.3694 148.6 21.1  .19 135